x

Superior Grand Traverse Bay, Mi (gtrm4) Weather Station

10:50pm - Sun 29th Mar 2015 All times are CDT. -5 hours from GMT.

  • Wind
    11mph, 18mph gusts
  • Air Temp 37°f
  • Sea Pressure 1005.1mb
  • Superior Grand Traverse Bay, Mi
  • Superior Grand Traverse Bay, Mi

More Historic Weather Station data

Upgrade to MSW Pro to gain access to the past 30 days of data for over 8000 Wavebouys and Weather Stations around the globe.

Join Pro

Comparision Forecast

View Surf forecast
   
Sun 03/29 10:50pm 11 18 mph 1005.1mb 37f
10:40pm 13 18 mph 1005.1mb 37f
10:30pm 11 20 mph 1005.1mb 37f
10:20pm 15 21 mph 1004.7mb 37f
10:10pm 13 17 mph 1004.7mb 36f
10:00pm 10 18 mph 1004.7mb 36f
9:50pm 10 20 mph 1004.7mb 37f
9:40pm 11 18 mph 1004.4mb 37f
9:30pm 13 18 mph 1004.4mb 37f
9:20pm 10 21 mph 1004.4mb 37f
9:10pm 14 24 mph 1004.1mb 37f
9:00pm 11 18 mph 1004.1mb 37f
8:50pm 14 21 mph 1003.7mb 37f
8:40pm 10 18 mph 1003.4mb 36f
8:30pm 16 25 mph 1003.4mb 36f
8:20pm 20 28 mph 1003.4mb 37f
8:10pm 14 23 mph 1002.7mb 38f
8:00pm 11 21 mph 1002.4mb 38f
7:50pm 14 23 mph 1002mb 37f
7:40pm 14 18 mph 1001.7mb 37f
7:30pm 15 21 mph 1001.7mb 38f
7:20pm 13 20 mph 1001mb 37f
7:10pm 13 21 mph 1001mb 37f
7:00pm 14 20 mph 1000.7mb 37f
6:50pm 11 18 mph 1000.3mb 37f
6:40pm 13 23 mph 1000mb 37f
6:30pm 13 23 mph 999.7mb 37f
6:20pm 14 22 mph 999.7mb 37f
6:10pm 13 23 mph 999.3mb 36f
6:00pm 14 21 mph 999mb 36f
5:50pm 16 25 mph 999mb 36f
5:40pm 14 23 mph 998.3mb 35f
5:30pm 15 25 mph 998mb 35f
5:20pm 14 23 mph 998mb 34f
5:10pm 11 24 mph 997.6mb 34f
5:00pm 15 22 mph 997.6mb 35f
4:50pm 13 29 mph 997.3mb 34f
4:40pm 16 26 mph 997mb 35f
4:30pm 15 23 mph 996.6mb 35f
4:20pm 13 26 mph 996.6mb 35f
4:10pm 13 18 mph 996.3mb 35f
4:00pm 8 17 mph 996.6mb 35f
3:50pm 7 11 mph 996.6mb 34f
3:40pm 7 11 mph 996.6mb 34f
3:30pm 8 13 mph 996.3mb 34f
3:20pm 9 15 mph 996.3mb 34f
3:10pm 8 13 mph 996.3mb 35f
3:00pm 7 14 mph 996.3mb 35f
2:50pm 8 13 mph 996.6mb 35f
2:40pm 6 15 mph 996.6mb 35f
2:30pm 9 14 mph 996.6mb 34f
2:20pm 5 14 mph 997mb 34f
2:10pm 6 16 mph 997.3mb 34f
2:00pm 8 16 mph 997.3mb 34f
1:50pm 9 21 mph 997.3mb 34f
1:40pm 7 13 mph 997.6mb 34f
1:30pm 8 14 mph 997.6mb 34f
1:20pm 7 14 mph 998mb 35f
1:10pm 7 14 mph 998mb 35f
1:00pm 7 15 mph 998.3mb 35f
12:50pm 6 15 mph 998.3mb 35f
12:40pm 9 16 mph 998.6mb 35f
12:30pm 7 16 mph 999mb 34f
12:20pm 5 16 mph 999mb 34f
12:10pm 7 11 mph 999.3mb 34f
12:00pm 6 10 mph 999.3mb 34f
11:50am 6 15 mph 999.7mb 33f
11:40am 8 15 mph 999.7mb 33f
11:30am 8 16 mph 1000mb 33f
11:20am 8 15 mph 1000mb 33f
11:10am 6 15 mph 1000mb 33f
11:00am 6 17 mph 1000.3mb 33f
10:50am 10 17 mph 1000.3mb 33f
10:40am 7 15 mph 1000.7mb 33f
10:30am 11 18 mph 1001mb 33f
10:20am 11 17 mph 1001.4mb 33f
10:10am 8 16 mph 1001.4mb 34f
10:00am 9 16 mph 1001mb 35f
9:50am 8 21 mph 1001.4mb 35f
9:40am 9 14 mph 1001.4mb 34f
9:30am 6 15 mph 1001.7mb 34f
9:20am 9 14 mph 1001.7mb 35f
9:10am 5 14 mph 1002mb 36f
9:00am 7 11 mph 1002.4mb 36f
8:50am 5 17 mph 1002.7mb 36f
8:40am 7 15 mph 1002.7mb 36f
8:30am 9 16 mph 1003mb 35f
8:20am 6 14 mph 1003mb 34f
8:10am 8 17 mph 1003.4mb 34f
8:00am 11 20 mph 1003.4mb 34f
7:50am 9 21 mph 1003.7mb 34f
7:40am 11 18 mph 1004.1mb 34f
7:30am 8 22 mph 1004.4mb 34f
7:20am 10 20 mph 1004.7mb 34f
7:10am 7 18 mph 1004.7mb 34f
7:00am 7 15 mph 1005.4mb 34f
6:50am 8 15 mph 1005.8mb 33f
6:40am 8 16 mph 1006.1mb 33f
6:30am 8 18 mph 1006.4mb 33f
6:20am 10 18 mph 1006.8mb 33f
6:10am 10 20 mph 1007.1mb 33f
6:00am 11 22 mph 1007.5mb 34f
5:50am 9 16 mph 1007.8mb 35f
5:40am 8 16 mph 1008.1mb 35f
5:30am 9 15 mph 1008.5mb 34f
5:20am 5 9 mph 1008.8mb 33f
5:10am 3 8 mph 1008.8mb 33f
5:00am 5 9 mph 1009.1mb 33f
4:50am 5 8 mph 1009.5mb 33f
4:40am 5 8 mph 1009.8mb 33f
4:30am 5 8 mph 1010.2mb 33f
4:20am 5 10 mph 1010.5mb 33f
4:10am 6 11 mph 1010.8mb 34f
4:00am 6 11 mph 1010.8mb 34f
3:50am 5 14 mph 1010.8mb 34f
3:40am 5 15 mph 1010.8mb 34f
3:30am 8 13 mph 1010.8mb 34f
3:20am 6 13 mph 1010.8mb 33f
3:10am 7 14 mph 1011.2mb 33f
3:00am 6 11 mph 1011.2mb 33f
2:50am 6 10 mph 1011.5mb 32f
2:40am 3 9 mph 1011.9mb 31f
2:30am 3 8 mph 1011.9mb 31f
2:20am 3 7 mph 1012.2mb 30f
2:10am 2 6 mph 1012.2mb 29f
2:00am 3 7 mph 1012.5mb 28f
1:50am 3 7 mph 1012.5mb 27f
1:40am 3 7 mph 1012.9mb 25f
1:30am 3 5 mph 1012.9mb 24f
1:20am 2 5 mph 1013.2mb 23f
1:10am 2 5 mph 1013.2mb 19f
1:00am 3
mph
1013.5mb 19f
12:50am 3 5 mph 1013.9mb 19f
12:40am 2 3 mph 1013.9mb 19f
12:30am 2
mph
1014.2mb 20f
12:20am 2
mph
1014.2mb 20f
12:10am 2
mph
1014.6mb 20f
12:00am 1 2 mph 1014.9mb 20f
Sat 03/28 11:50pm 2 5 mph 1014.9mb 21f
11:40pm 3
mph
1015.2mb 20f
11:30pm 3
mph
1015.2mb 22f
11:20pm 3
mph
1015.6mb 22f
11:10pm 3
mph
1015.6mb 23f
11:00pm 2 3 mph 1015.6mb 23f
10:50pm 2
mph
1015.9mb 23f
10:40pm 1 2 mph 1015.9mb 23f
10:30pm  -  1 mph 1016.3mb 24f
10:20pm  -  1 mph 1016.3mb 25f
10:10pm  -  1 mph 1016.6mb 26f
10:00pm  -  2 mph 1016.6mb 26f
9:50pm  -  1 mph 1016.9mb 26f
9:40pm  -  3 mph 1016.9mb 28f
9:30pm  -  6 mph 1017.3mb 29f
9:20pm 1 6 mph 1017.3mb 29f
9:10pm 3 10 mph 1017.6mb 29f
9:00pm 9 15 mph 1017.6mb 30f
8:50pm 14 18 mph 1017.6mb 30f
8:40pm 15 20 mph 1017.6mb 30f
8:30pm 17 23 mph 1017.3mb 30f
8:20pm 20 22 mph 1017.6mb 30f
8:10pm 18 22 mph 1017.9mb 30f
8:00pm 22 23 mph 1017.9mb 30f
7:50pm 20 22 mph 1017.9mb 30f
7:40pm 18 21 mph 1017.9mb 31f
7:30pm 17 20 mph 1018.3mb 31f
7:20pm 15 18 mph 1018.3mb 31f
7:10pm 17 20 mph 1018.3mb 31f
7:00pm 14 17 mph 1018.6mb 31f
6:50pm 13 16 mph 1018.6mb 31f
6:40pm 15 17 mph 1018.6mb 31f
6:30pm 15 18 mph 1018.6mb 31f
6:20pm 16 18 mph 1018.6mb 30f
6:10pm 15 20 mph 1019mb 30f
6:00pm 18 20 mph 1019mb 30f
5:50pm 16 17 mph 1019.3mb 30f
5:40pm 15 17 mph 1019.3mb 30f
5:30pm 15 17 mph 1019.6mb 30f
5:20pm 16 17 mph 1019.6mb 30f
5:10pm 15 16 mph 1019.6mb 30f
5:00pm 14 15 mph 1020mb 30f
4:50pm 13 15 mph 1020.3mb 30f
4:40pm 14 16 mph 1020mb 30f
4:30pm 14 15 mph 1020.3mb 30f
4:20pm 14 16 mph 1020.3mb 30f
4:10pm 15 16 mph 1020.7mb 30f
4:00pm 14 15 mph 1020.7mb 30f
3:50pm 14 16 mph 1020.7mb 30f
3:40pm 14 15 mph 1021mb 30f
3:30pm 13 15 mph 1021mb 31f
3:20pm 11 13 mph 1021mb 31f
3:10pm 10 11 mph 1021.3mb 31f
3:00pm 10 13 mph 1021.3mb 31f
2:50pm 11 13 mph 1021.3mb 31f
2:40pm 11 13 mph 1021.7mb 31f
2:30pm 11 13 mph 1021.7mb 31f
2:20pm 11 13 mph 1022mb 31f
2:10pm 11 13 mph 1022.4mb 31f
2:00pm 11 13 mph 1022.4mb 31f
1:50pm 9 13 mph 1022.7mb 31f
1:40pm 11 13 mph 1022.7mb 31f
1:30pm 11
mph
1022.7mb 31f
1:20pm 8 11 mph 1023mb 31f
1:10pm 9 11 mph 1023mb 30f
1:00pm 9 11 mph 1023mb 29f
12:50pm 10 11 mph 1023.4mb 29f
12:40pm 9 10 mph 1023.4mb 29f
12:30pm 8 9 mph 1023.7mb 28f
12:20pm 8 10 mph 1023.7mb 28f
12:10pm 9 10 mph 1023.7mb 27f
12:00pm 8
mph
1024mb 26f
11:50am 7 8 mph 1024mb 26f
11:40am 7 8 mph 1024.4mb 26f
11:30am 6 7 mph 1024.4mb 25f
11:20am 5 6 mph 1024.7mb 25f
11:10am 5
mph
1024.7mb 25f
11:00am 2 5 mph 1024.7mb 25f
10:50am 3 5 mph 1024.7mb 24f
10:40am 3 5 mph 1024.7mb 24f
10:30am 2 3 mph 1025.1mb 24f
10:20am  -  1 mph 1025.1mb 28f
10:10am 1 3 mph 1025.1mb 24f
10:00am 1 2 mph 1025.1mb 24f
9:50am  -  1 mph 1025.1mb -
9:40am  -  mph 1025.1mb -
9:30am  -  1 mph 1025.1mb -
9:20am 1 3 mph 1025.1mb 20f
9:10am 2 5 mph 1025.1mb 17f
9:00am 3 5 mph 1025.1mb 15f
8:50am 2 5 mph 1025.1mb 15f
8:40am 1 2 mph 1025.1mb 14f
8:30am 1 2 mph 1025.1mb 11f
8:20am  -  2 mph 1025.1mb 10f
8:10am  -  3 mph 1025.1mb 8f
8:00am 3
mph
1025.4mb 5f
7:50am 2
mph
1025.1mb 3f
7:40am 2 3 mph 1025.1mb 1f
7:30am 3
mph
1024.7mb -1f
7:20am 3 6 mph 1024.7mb -2f
7:10am 6 7 mph 1024.4mb -4f
7:00am 6
mph
1024.4mb -6f
6:50am 5
mph
1024.4mb -7f
6:40am 3 5 mph 1024mb -6f
6:30am 3 5 mph 1024mb -3f
6:20am 3 5 mph 1024.4mb -3f
6:10am 5 7 mph 1024.4mb -4f
6:00am 6 7 mph 1024mb -5f
5:50am 5 6 mph 1024mb -6f
5:40am 2 3 mph 1023.7mb -6f
5:30am 2 5 mph 1024mb -6f
5:20am 5
mph
1024mb -6f
5:10am 3 5 mph 1023.7mb -5f
5:00am 3 5 mph 1023.7mb -5f
4:50am 3
mph
1023.7mb -4f
4:40am 2 5 mph 1023.7mb -4f
4:30am 3 5 mph 1023.7mb -4f
4:20am 5
mph
1023.4mb -4f
4:10am 3 5 mph 1023.4mb -3f
4:00am 5
mph
1023.4mb -4f
3:50am 2 5 mph 1023.4mb -1f
3:40am 5 6 mph 1023.4mb -
3:30am 5
mph
1023.7mb -
3:20am 5
mph
1023.7mb -2f
3:10am 5
mph
1023.7mb -2f
3:00am 3 5 mph 1023.7mb -2f
2:50am 2 3 mph 1023.7mb -2f
2:40am 2 5 mph 1023.7mb -1f
2:30am 5 6 mph 1023.7mb -1f
2:20am 5 6 mph 1023.7mb -
2:10am 5
mph
1023.7mb -
2:00am 3 5 mph 1023.7mb -
1:50am 3 5 mph 1023.7mb 1f
1:40am 5 6 mph 1023.4mb 1f
1:30am 5
mph
1023.7mb 1f
1:20am 5 6 mph 1023.4mb 3f
1:10am 5 6 mph 1023.4mb 3f
1:00am 5 6 mph 1023.7mb 3f
12:50am 5 6 mph 1023.4mb 3f
12:40am 3 6 mph 1023.4mb 4f
12:30am 6 7 mph 1023.4mb 4f
12:20am 5 6 mph 1023.4mb 4f
12:10am 5 6 mph 1023.7mb 5f
12:00am 5 6 mph 1023.7mb 5f
Fri 03/27 11:50pm 5 7 mph 1023.7mb 4f
11:40pm 6 7 mph 1023.7mb 5f
11:30pm 6 7 mph 1023.7mb 5f
11:20pm 6
mph
1023.4mb 6f
11:10pm 5 7 mph 1023.4mb 6f
11:00pm 5 7 mph 1023.4mb 5f
10:50pm 5 6 mph 1023.4mb 5f
10:40pm 6
mph
1023.4mb 5f
10:30pm 5 6 mph 1023.4mb 5f
10:20pm 6
mph
1023.4mb 5f
10:10pm 6
mph
1023.4mb 5f
10:00pm 5
mph
1023.4mb 6f
9:50pm 5
mph
1023.4mb 5f
9:40pm 5
mph
1023.4mb 8f
9:30pm 5 6 mph 1023.7mb 6f
9:20pm 5
mph
1023.7mb 7f
9:10pm 3
mph
1023.4mb 8f
9:00pm 3 5 mph 1023.4mb 8f
8:50pm 2
mph
1023.7mb 9f
8:40pm 2
mph
1023.4mb 10f
8:30pm 2
mph
1023.4mb 10f
8:20pm 2
mph
1023.4mb 11f
8:10pm 2 3 mph 1023.4mb 12f
8:00pm  -  3 mph 1023.4mb 14f
7:50pm  -  2 mph 1023.4mb 13f
7:40pm  -  2 mph 1023.4mb 15f
7:30pm 1 5 mph 1023.7mb 18f
7:20pm 2 5 mph 1023.7mb 17f
7:10pm 3 6 mph 1023.4mb 18f
7:00pm 2 6 mph 1023.7mb 19f
6:50pm 3 8 mph 1023.7mb 19f
6:40pm 6 8 mph 1023.4mb 19f
6:30pm 6 7 mph 1023.7mb 19f
6:20pm 5 8 mph 1023.7mb 19f
6:10pm 5 9 mph 1023.4mb 19f
6:00pm 6 9 mph 1023.4mb 20f
5:50pm 7 9 mph 1023.4mb 19f
5:40pm 6 10 mph 1023.4mb 19f
5:30pm 7 10 mph 1023.4mb 19f
5:20pm 6 9 mph 1023.4mb 19f
5:10pm 7 9 mph 1023.7mb 19f
5:00pm 7 8 mph 1023.7mb 19f
4:50pm 5 9 mph 1023.7mb 19f
4:40pm 6 8 mph 1023.7mb 19f
4:30pm 6 9 mph 1023.7mb 19f
4:20pm 6 8 mph 1023.7mb 19f
4:10pm 5 9 mph 1023.7mb 19f
4:00pm 5 8 mph 1023.7mb 19f
3:50pm 6 8 mph 1023.7mb 19f
3:40pm 6 9 mph 1023.7mb 19f
3:30pm 7 11 mph 1023.7mb 19f
3:20pm 7 9 mph 1023.7mb 19f
3:10pm 7 10 mph 1024mb 19f
3:00pm 8 9 mph 1024mb 19f
2:50pm 7 9 mph 1024mb 19f
2:40pm 8 10 mph 1024mb 18f
2:30pm 7 9 mph 1024mb 18f
2:20pm 7 9 mph 1024mb 18f
2:10pm 8 9 mph 1024.4mb 18f
2:00pm 7 10 mph 1024.4mb 18f
1:50pm 7 10 mph 1024.4mb 18f
1:40pm 7 9 mph 1024.7mb 18f
1:30pm 7 11 mph 1024.7mb 18f
1:20pm 6 9 mph 1024.7mb 18f
1:10pm 7 10 mph 1024.7mb 17f
1:00pm 8 10 mph 1024.7mb 17f
12:50pm 9 10 mph 1024.7mb 17f
12:40pm 8 11 mph 1024.7mb 17f
12:30pm 9 11 mph 1025.1mb 17f
12:20pm 6 10 mph 1025.1mb 17f
12:10pm 8 10 mph 1025.1mb 17f
12:00pm 9 11 mph 1025.4mb 17f
11:50am 8 9 mph 1025.4mb 17f
11:40am 8 10 mph 1025.4mb 17f
11:30am 8 10 mph 1025.4mb 16f
11:20am 7 10 mph 1025.4mb 17f
11:10am 7 11 mph 1025.4mb 17f
11:00am 6 9 mph 1025.7mb 17f
10:50am 7 11 mph 1025.7mb 17f
10:40am 6 8 mph 1025.7mb 16f
10:30am 7 10 mph 1026.1mb 17f
10:20am 6 9 mph 1026.1mb 16f
10:10am 5 10 mph 1026.1mb 16f
10:00am 3 10 mph 1026.1mb 18f
9:50am 6 7 mph 1026.1mb 19f
9:40am 6 9 mph 1026.1mb 19f
9:30am 7 9 mph 1026.1mb 15f
9:20am 6 9 mph 1026.1mb 15f
9:10am 8 9 mph 1025.7mb 16f
9:00am 7 11 mph 1026.1mb 15f
8:50am 7 13 mph 1025.7mb 14f
8:40am 9 14 mph 1025.7mb 13f
8:30am 10 15 mph 1025.7mb 13f
8:20am 11 14 mph 1025.4mb 12f
8:10am 11 14 mph 1025.7mb 12f
8:00am 9 11 mph 1025.7mb 12f
7:50am 7 10 mph 1025.4mb 10f
7:40am 7 9 mph 1025.4mb 9f
7:30am 5 7 mph 1025.4mb 7f
7:20am 3 8 mph 1025.4mb 7f
7:10am 5 11 mph 1025.4mb 6f
7:00am 6 11 mph 1025.1mb 6f
6:50am 7 10 mph 1024.7mb 6f
6:40am 7 10 mph 1024.7mb 6f
6:30am 7 11 mph 1024.7mb 6f
6:20am 6 9 mph 1024.7mb 6f
6:10am 6 9 mph 1024.7mb 7f
6:00am 8 10 mph 1024.4mb 8f
5:50am 8 14 mph 1024.4mb 9f
5:40am 9 13 mph 1024.4mb 9f
5:30am 8 14 mph 1024.4mb 9f
5:20am 9 16 mph 1024.4mb 10f
5:10am 9 16 mph 1024mb 10f
5:00am 11 17 mph 1024mb 11f
4:50am 13 18 mph 1024mb 12f
4:40am 14 21 mph 1023.7mb 12f
4:30am 13 17 mph 1023.7mb 12f
4:20am 15 21 mph 1023.7mb 13f
4:10am 14 18 mph 1023.4mb 13f
4:00am 11 17 mph 1023.4mb 12f
3:50am 9 15 mph 1023.4mb 12f
3:40am 10 16 mph 1023mb 13f
3:30am 11 16 mph 1023mb 14f
3:20am 7 10 mph 1023mb 13f
3:10am 8 11 mph 1022.7mb 14f
3:00am 7 10 mph 1022.7mb 14f
2:50am 8 11 mph 1022.7mb 15f
2:40am 7 11 mph 1022.7mb 15f
2:30am 8 13 mph 1022.7mb 15f
2:20am 9 13 mph 1022.7mb 15f
2:10am 5 6 mph 1022.4mb 14f
2:00am 5 7 mph 1022.4mb 15f
1:50am 5 10 mph 1022.4mb 15f
1:40am 6 10 mph 1022.4mb 14f
1:30am 6 7 mph 1022.4mb 13f
1:20am 5
mph
1022.4mb 12f
1:10am 2 3 mph 1022mb 13f
1:00am 2 6 mph 1022mb 13f
12:50am 5 7 mph 1022mb 14f
12:40am 6 8 mph 1022mb 14f
12:30am 6 7 mph 1022mb 14f
12:20am 6 8 mph 1022mb 14f
12:10am 6 8 mph 1022mb 13f
12:00am 6 7 mph 1022mb 14f
Thu 03/26 11:50pm 6 8 mph 1022mb 14f
11:40pm 6 8 mph 1022mb 14f
11:30pm 5 6 mph 1022mb 15f
11:20pm 5 7 mph 1022mb 15f
11:10pm 6 9 mph 1021.7mb 15f
11:00pm 5 6 mph 1021.7mb 15f
10:50pm 2 7 mph 1021.7mb 15f
10:40pm 5 9 mph 1021.7mb 16f
10:30pm 5 9 mph 1021.7mb 16f
10:20pm 5 8 mph 1021.7mb 16f
10:10pm 5 9 mph 1021.7mb 14f
10:00pm 5 6 mph 1021.7mb 13f
9:50pm 5
mph
1021.7mb 13f
9:40pm 5
mph
1021.3mb 11f
9:30pm 5
mph
1021.7mb 12f
9:20pm 5 6 mph 1021.3mb 12f
9:10pm 5 6 mph 1021.3mb 11f
9:00pm 5 6 mph 1021.3mb 11f
8:50pm 5 6 mph 1021.3mb 11f
8:40pm 3 5 mph 1021.3mb 12f
8:30pm 3 5 mph 1021mb 13f
8:20pm 3 6 mph 1021mb 14f
8:10pm 3 5 mph 1021mb 13f
8:00pm 3 5 mph 1021mb 15f
7:50pm 3 7 mph 1021mb 16f
7:40pm 3 6 mph 1020.7mb 17f
7:30pm 3 8 mph 1020.7mb 18f
7:20pm 5 10 mph 1020.7mb 19f
7:10pm 7 11 mph 1020.3mb 19f
7:00pm 7 11 mph 1020.3mb 20f
6:50pm 6 13 mph 1020mb 20f
6:40pm 9 13 mph 1020mb 21f
6:30pm 9 17 mph 1020mb 21f
6:20pm 8 15 mph 1020mb 21f
6:10pm 9 17 mph 1019.6mb 21f
6:00pm 11 21 mph 1019.6mb 21f
5:50pm 10 18 mph 1019.6mb 21f
5:40pm 15 20 mph 1019.3mb 21f
5:30pm 10 16 mph 1019.3mb 21f
5:20pm 10 18 mph 1019.3mb 21f
5:10pm 9 17 mph 1019.3mb 21f
5:00pm 10 20 mph 1019.3mb 22f
4:50pm 11 20 mph 1019mb 22f
4:40pm 10 18 mph 1019mb 22f
4:30pm 13 17 mph 1018.6mb 22f
4:20pm 13 21 mph 1018.6mb 21f
4:10pm 14 22 mph 1018.6mb 22f
4:00pm 10 18 mph 1018.6mb 22f
3:50pm 14 22 mph 1018.6mb 20f
3:40pm 14 22 mph 1018.6mb 21f
3:30pm 14 23 mph 1018.6mb 21f
3:20pm 15 23 mph 1018.3mb 20f
3:10pm 15 24 mph 1018.3mb 21f
3:00pm 15 23 mph 1018.3mb 20f
2:50pm 13 23 mph 1018.3mb 21f
2:40pm 14 23 mph 1018.3mb 20f
2:30pm 17 26 mph 1018.3mb 19f
2:20pm 15 22 mph 1018.3mb 20f
2:10pm 16 22 mph 1018.3mb 19f
2:00pm 10 18 mph 1018.3mb 20f
1:50pm 13 21 mph 1018.3mb 20f
1:40pm 11 18 mph 1018.3mb 20f
1:30pm 13 17 mph 1018.3mb 19f
1:20pm 11 18 mph 1018.3mb 20f
1:10pm 13 22 mph 1018.3mb 19f
1:00pm 13 20 mph 1017.9mb 19f
12:50pm 13 22 mph 1017.9mb 20f
12:40pm 14 22 mph 1017.9mb 19f
12:30pm 16 23 mph 1017.9mb 19f
12:20pm 13 18 mph 1017.9mb 19f
12:10pm 15 21 mph 1017.6mb 19f
12:00pm 15 23 mph 1017.6mb 19f
11:50am 13 22 mph 1017.6mb 19f
11:40am 14 23 mph 1017.6mb 19f
11:30am 15 22 mph 1017.6mb 19f
11:20am 9 21 mph 1017.6mb 20f
11:10am 13 18 mph 1017.6mb 19f
11:00am 16 22 mph 1017.3mb 18f
10:50am 16 22 mph 1017.3mb 19f
10:40am 13 20 mph 1017.6mb 19f
10:30am 10 20 mph 1017.3mb 19f
10:20am 14 22 mph 1017.3mb 20f
10:10am 14 23 mph 1016.9mb 20f
10:00am 11 22 mph 1016.9mb 20f
9:50am 14 23 mph 1016.9mb 18f
9:40am 15 23 mph 1016.6mb 18f
9:30am 17 23 mph 1016.6mb 18f
9:20am 14 21 mph 1016.6mb 18f
9:10am 11 20 mph 1016.6mb 18f
9:00am 15 20 mph 1016.3mb 18f
8:50am 11 23 mph 1016.3mb 18f
8:40am 16 22 mph 1016.3mb 18f
8:30am 9 17 mph 1015.9mb 18f
8:20am 9 14 mph 1015.6mb 19f
8:10am 10 18 mph 1015.2mb 19f
8:00am 8 15 mph 1015.2mb 19f
7:50am 13 21 mph 1014.9mb 19f
7:40am 9 16 mph 1014.9mb 19f
7:30am 7 18 mph 1014.6mb 19f
7:20am 10 25 mph 1014.6mb 19f
7:10am 14 24 mph 1014.2mb 19f
7:00am 10 20 mph 1013.9mb 19f
6:50am 13 30 mph 1013.5mb 19f
6:40am 18 30 mph 1013.2mb 20f
6:30am 10 29 mph 1012.9mb 20f
6:20am 18 29 mph 1012.9mb 21f
6:10am 17 29 mph 1012.5mb 21f
6:00am 21 29 mph 1012.5mb 21f
5:50am 18 29 mph 1012.2mb 22f
5:40am 17 31 mph 1011.5mb 22f
5:30am 15 23 mph 1011.5mb 22f
5:20am 20 30 mph 1011.5mb 23f
5:10am 17 25 mph 1011.5mb 23f
5:00am 16 26 mph 1011.2mb 23f
4:50am 16 24 mph 1010.8mb 24f
4:40am 15 28 mph 1010.8mb 26f